Location: Ashtead
(51.3000°N, 0.3000°W)
Time: 04:34:27
(UTC+00:00)

ADEOS II - Pass Details

Date: 26 September 2023
Orbit: 798 x 798 km, 98.7° (Epoch: 29 November)

Event Time Altitude Azimuth Distance (km) Brightness Sun altitude
Rises 03:57:52 0° 7° (N) 3,321 5.7 -18.4°
Reaches altitude 10° 04:00:41 10° 352° (N) 2,386 4.7 -18.0°
Maximum altitude 04:04:35 22° 304° (NW) 1,709 3.5 -17.4°
Enters shadow 04:05:31 21° 289° (WNW) 1,753 3.4 -17.3°
